Location: Newark
(5.0949°S, 42.8042°W)
Time: 18:26:18
(UTC+00:00)

Hubble Space Telescope - Pass Details

Date: 28 September 2019
Orbit: 536 x 540 km, 28.5° (Epoch: 22 October)

Event Time Altitude Azimuth Distance (km) Brightness Sun altitude
Exits shadow 06:30:00 11° 48° (NE) 1,717 3.8 -32.6°
Drops below altitude 10° 06:30:25 10° 53° (NE) 1,774 3.9 -32.5°
Sets 06:33:58 0° 85° (E) 2,668 5.4 -31.7°
